Winslow, AZ

3:28 PM MST on May 22, 2018 (GMT -0700)
Winslow-Lindbergh Regional

Weather History for KINW - May, 2013

Change the Weather History Date:

Thursday, May 9, 2013

  Actual Average Record
Temperature  
Mean Temperature 56 °F 62 °F  
Max Temperature 73 °F 79 °F 97 °F (2018)
Min Temperature 38 °F 44 °F 25 °F (1930)
Degree Days  
Heating Degree Days 9 5  
Month to date heating degree days 55 50  
Since 1 July heating degree days 4164 4429  
Cooling Degree Days 0 1  
Month to date cooling degree days 1 9  
Year to date cooling degree days 8 13  
Growing Degree Days 5 (Base 50)    
Moisture  
Dew Point 29 °F    
Average Humidity 36    
Maximum Humidity 54    
Minimum Humidity 17    
Precipitation  
Precipitation T in 0.01 in 0.29 in (2017)
Month to date precipitation T 0.09  
Year to date precipitation 1.79 1.87  
Sea Level Pressure  
Sea Level Pressure 29.96 in    
Wind  
Wind Speed 9 mph (WNW)    
Max Wind Speed 31 mph    
Max Gust Speed 38 mph    
Visibility 10 miles    
Events      
T = Trace of Precipitation, MM = Missing Value Source: NWS Daily Summary

Daily Weather History Graph

Daily Weather History Graph

Search for Another Location

Airport or City:

Astronomy

May. 09, 2013 Rise Set
Actual Time 5:23 AM MST 7:15 PM MST
Civil Twilight 4:56 AM MST 7:42 PM MST
Nautical Twilight 4:22 AM MST 8:16 PM MST
Astronomical Twilight 3:47 AM MST 8:52 PM MST
Moon 5:09 AM MST (5/9) 7:13 PM MST (5/9)
Length of Visible Light 14h 46m
Length of Day
13h 51m
Waning Crescent, 0% of the Moon is Illuminated
May 9
Waning Crescent
May 9
New
May 17
First Quarter
May 24
Full
May 31
Last Quarter

Hourly Weather History & Observations

Time (MST) Temp. Windchill Dew Point Humidity Pressure Visibility Wind Dir Wind Speed Gust Speed Precip Events Conditions
12:56 AM 48.0 °F - 27.0 °F 44% 29.95 in 10.0 mi SSW 6.9 mph - N/A   Clear
1:56 AM 46.0 °F - 27.0 °F 47% 29.96 in 10.0 mi Calm Calm - N/A   Clear
2:56 AM 46.9 °F - 28.0 °F 48% 29.95 in 10.0 mi Calm Calm - N/A   Clear
3:56 AM 45.0 °F 41.8 °F 26.1 °F 48% 29.95 in 10.0 mi North 5.8 mph - N/A   Clear
4:56 AM 39.9 °F - 24.1 °F 53% 29.96 in 10.0 mi Calm Calm - N/A   Clear
5:56 AM 39.9 °F - 24.1 °F 53% 29.98 in 10.0 mi Calm Calm - N/A   Clear
6:56 AM 50.0 °F - 28.0 °F 43% 29.97 in 10.0 mi Calm Calm - N/A   Clear
7:56 AM 57.0 °F - 28.9 °F 34% 29.96 in 10.0 mi Calm Calm - N/A   Clear
8:56 AM 60.1 °F - 30.0 °F 32% 29.96 in 10.0 mi NE 3.5 mph - N/A   Clear
9:56 AM 64.0 °F - 28.9 °F 27% 29.96 in 10.0 mi NE 3.5 mph - N/A   Clear
10:56 AM 68.0 °F - 27.0 °F 21% 29.95 in 10.0 mi NNW 6.9 mph - N/A   Clear
11:56 AM 70.0 °F - 25.0 °F 18% 29.93 in 10.0 mi NE 11.5 mph - N/A   Scattered Clouds
12:56 PM 71.1 °F - 24.1 °F 17% 29.91 in 10.0 mi East 8.1 mph - N/A   Scattered Clouds
1:56 PM 72.0 °F - 27.0 °F 19% 29.90 in 10.0 mi West 20.7 mph 27.6 mph N/A   Mostly Cloudy
2:56 PM 64.0 °F - 34.0 °F 33% 29.94 in 10.0 mi SW 26.5 mph 35.7 mph N/A   Overcast
3:56 PM 63.0 °F - 32.0 °F 31% 29.95 in 10.0 mi WSW 19.6 mph - 0.00 in   Mostly Cloudy
4:56 PM 66.0 °F - 26.1 °F 22% 29.93 in 10.0 mi WSW 6.9 mph - N/A   Scattered Clouds
5:56 PM 66.9 °F - 23.0 °F 19% 29.93 in 10.0 mi WNW 11.5 mph - N/A   Clear
6:56 PM 64.0 °F - 34.0 °F 33% 29.94 in 10.0 mi NNW 24.2 mph 32.2 mph N/A   Scattered Clouds
7:56 PM 60.1 °F - 34.0 °F 38% 29.96 in 10.0 mi NW 16.1 mph 21.9 mph N/A   Mostly Cloudy
8:56 PM 57.9 °F - 34.0 °F 41% 29.99 in 10.0 mi NW 10.4 mph - N/A   Partly Cloudy
9:56 PM 55.9 °F - 34.0 °F 44% 30.01 in 10.0 mi West 10.4 mph - N/A   Overcast
10:56 PM 53.1 °F - 35.1 °F 50% 30.00 in 10.0 mi WNW 8.1 mph - N/A   Mostly Cloudy
11:56 PM 48.9 °F - 35.1 °F 59% 30.02 in 10.0 mi West 3.5 mph - N/A   Partly Cloudy